This demonstration page uses our WeatherBlox Daily Observations layout. Learn more.

Hourly Observations for July 13, 2018

Temp ( °F °C ) Dew Point ( °F °C ) Humidity (%) Winds ( mph kmh ) Pressure ( in mb ) Visibility ( mi km ) Precip ( " mm )
12:15 am 00:15 Clear 76 24.4 68 20 77 77 S 6 9 29.91 1013 10 16.0934 0 0
12:35 am 00:35 Clear 76 24.5 68 19.8 75 75 S 6 9 29.91 1013 10 16.0934 0 0
12:55 am 00:55 Clear 76 24.5 68 19.8 75 75 S 7 11 29.91 1013 10 16.0934 0 0
1:15 am 01:15 Clear 75 23.8 68 20 79 79 S 6 9 29.91 1013 10 16.0934 0 0
1:35 am 01:35 Mostly Cloudy 76 24.6 67 19.7 74 74 S 5 7 29.91 1013 10 16.0934 0 0
1:55 am 01:55 Cloudy 75 23.9 68 20 79 79 NW 9 15 29.94 1014 10 16.0934 0 0
2:15 am 02:15 Cloudy with Heavy Rain 73 22.8 67 19.6 82 82 NNW 18 30 29.97 1015 3 4.82802 0.24 6.096
2:35 am 02:35 Cloudy 70 21 67 19.6 92 92 N 10 17 29.97 1015 10 16.0934 0.28 7.112
2:55 am 02:55 Cloudy with Rain 69 20.7 67 19.6 93 93 NNE 8 13 29.97 1015 10 16.0934 0.29 7.366
3:15 am 03:15 Mostly Cloudy 68 20.2 67 19.6 96 96 NNE 9 15 29.97 1015 10 16.0934 0 0
3:35 am 03:35 Partly Cloudy 67 19.7 66 19.1 96 96 NE 9 15 29.97 1015 10 16.0934 0 0
3:55 am 03:55 Clear 67 19.5 66 19 97 97 E 7 11 29.97 1015 10 16.0934 0 0
4:15 am 04:15 Clear 67 19.5 66 19 97 97 ENE 8 13 29.97 1015 10 16.0934 0 0
4:35 am 04:35 Clear 67 19.5 66 19.1 98 98 NE 6 9 30 1016 10 16.0934 0 0
4:55 am 04:55 Partly Cloudy 67 19.4 67 19.2 99 99 NE 5 7 30 1016 10 16.0934 0 0
5:15 am 05:15 Cloudy 67 19.5 67 19.5 100 100 Calm 30 1016 10 16.0934 0 0
5:35 am 05:35 Cloudy 67 19.5 67 19.5 100 100 N 3 6 30 1016 10 16.0934 0 0
5:55 am 05:55 Cloudy 67 19.5 67 19.5 100 100 NNW 3 6 30 1016 10 16.0934 0 0
6:15 am 06:15 Cloudy 67 19.5 67 19.5 100 100 N 5 7 30 1016 10 16.0934 0 0
6:35 am 06:35 Cloudy 67 19.3 67 19.3 100 100 N 6 9 30 1016 10 16.0934 0 0
6:55 am 06:55 Mostly Cloudy 67 19.4 67 19.4 100 100 N 6 9 30 1016 10 16.0934 0 0
7:15 am 07:15 Mostly Cloudy 67 19.6 67 19.6 100 100 N 6 9 30.03 1017 10 16.0934 0 0
7:35 am 07:35 Mostly Cloudy 68 20 68 20 100 100 NNE 7 11 30.03 1017 10 16.0934 0 0
7:55 am 07:55 Mostly Cloudy 68 20.2 68 20.2 100 100 N 7 11 30.03 1017 10 16.0934 0 0
8:15 am 08:15 Cloudy 69 20.3 69 20.3 100 100 NNE 10 17 30.03 1017 10 16.0934 0 0
8:35 am 08:35 Cloudy 69 20.5 69 20.5 100 100 NE 9 15 30 1016 10 16.0934 0 0
8:55 am 08:55 Cloudy 69 20.5 69 20.5 100 100 NE 8 13 30 1016 10 16.0934 0 0
9:15 am 09:15 Cloudy 69 20.6 69 20.6 100 100 NNE 9 15 30.06 1018 10 16.0934 0 0
9:35 am 09:35 Cloudy with Rain 69 20.6 69 20.6 100 100 NE 9 15 30 1016 4 6.43736 0.01 0.254
9:55 am 09:55 Cloudy with Light Thunderstorms 69 20.8 69 20.8 100 100 ENE 7 11 30 1016 5 8.0467 0.03 0.762
10:15 am 10:15 Cloudy with Thunderstorms 70 21 70 21 100 100 NNE 5 7 30.03 1017 10 16.0934 0 0
10:35 am 10:35 Cloudy with Heavy Rain 70 21 70 21 100 100 ENE 6 9 30 1016 2.5 4.02335 0.05 1.27
10:55 am 10:55 Cloudy with Light Rain 70 21 70 21 100 100 ENE 7 11 30 1016 5 8.0467 0.07 1.778
11:15 am 11:15 Cloudy with Light Drizzle 69 20.8 69 20.8 100 100 NNE 7 11 30.03 1017 5 8.0467 0 0
11:35 am 11:35 Cloudy with Light Rain 70 21 70 21 100 100 NNE 5 7 30.03 1017 5 8.0467 0.01 0.254
11:55 am 11:55 Cloudy with Nearby Thunderstorms 70 21 70 21 100 100 N 6 9 30.03 1017 10 16.0934 0.01 0.254
12:15 pm 12:15 Cloudy with Rain 70 21 70 21 100 100 N 5 7 30.03 1017 7 11.26538 0.01 0.254
12:35 pm 12:35 Cloudy with Heavy Rain 70 21 70 21 100 100 NNE 5 7 30.03 1017 2.5 4.02335 0.1 2.54
12:55 pm 12:55 Mostly Cloudy 71 21.5 71 21.4 99 99 N 8 13 30.03 1017 10 16.0934 0.1 2.54
1:15 pm 13:15 Mostly Cloudy 73 22.5 71 21.6 95 95 NNE 7 11 30.03 1017 10 16.0934 0 0
1:35 pm 13:35 Mostly Cloudy 74 23.1 71 21.6 91 91 NNE 6 9 30.03 1017 10 16.0934 0 0
1:55 pm 13:55 Mostly Cloudy 76 24.5 72 22.1 87 87 N 9 15 30 1016 10 16.0934 0 0
2:15 pm 14:15 Mostly Cloudy 76 24.5 72 22.1 87 87 N 8 13 30 1016 10 16.0934 0 0
2:35 pm 14:35 Mostly Cloudy 76 24.5 70 21.3 82 82 NNE 7 11 30 1016 10 16.0934 0 0
2:55 pm 14:55 Cloudy with Haze 76 24.5 70 21.3 82 82 NNE 8 13 30 1016 5 8.0467 0 0
3:15 pm 15:15 Mostly Cloudy 78 25.5 71 21.6 79 79 N 10 17 30 1016 10 16.0934 0 0
3:35 pm 15:35 Mostly Cloudy 78 25.4 70 21.3 78 78 NNE 12 19 30 1016 10 16.0934 0 0
3:55 pm 15:55 Partly Cloudy 77 24.9 71 21.4 81 81 NNE 12 19 29.97 1015 10 16.0934 0 0
4:15 pm 16:15 Sunny 78 25.3 70 21.1 78 78 NE 10 17 29.97 1015 10 16.0934 0 0
4:35 pm 16:35 Sunny 79 26 71 21.6 77 77 ENE 12 19 29.97 1015 10 16.0934 0 0
4:55 pm 16:55 Partly Cloudy 78 25.7 70 21 75 75 NE 9 15 29.97 1015 10 16.0934 0 0
5:15 pm 17:15 Partly Cloudy 78 25.6 70 20.9 75 75 NE 9 15 29.97 1015 10 16.0934 0 0
5:35 pm 17:35 Partly Cloudy 78 25.7 71 21.4 77 77 E 10 17 29.97 1015 10 16.0934 0 0
5:55 pm 17:55 Mostly Cloudy 80 26.6 70 21.1 72 72 ENE 9 15 29.97 1015 10 16.0934 0 0
6:15 pm 18:15 Mostly Cloudy 78 25.4 70 20.9 76 76 ENE 9 15 29.97 1015 10 16.0934 0 0
6:35 pm 18:35 Partly Cloudy 79 26 70 21.2 75 75 ENE 10 17 29.94 1014 10 16.0934 0 0
6:55 pm 18:55 Partly Cloudy 78 25.8 70 21 75 75 ENE 10 17 29.94 1014 10 16.0934 0 0
7:15 pm 19:15 Sunny 78 25.6 70 21.1 76 76 ENE 10 17 29.97 1015 10 16.0934 0 0
7:35 pm 19:35 Sunny 78 25.3 69 20.5 75 75 ENE 12 19 29.97 1015 10 16.0934 0 0
7:55 pm 19:55 Sunny 77 25 69 20.7 77 77 ENE 10 17 29.97 1015 10 16.0934 0 0
8:15 pm 20:15 Sunny 76 24.7 69 20.5 78 78 E 9 15 29.97 1015 10 16.0934 0 0
8:35 pm 20:35 Sunny 75 24.1 69 20.5 80 80 E 7 11 29.97 1015 10 16.0934 0 0
8:55 pm 20:55 Sunny 74 23.2 69 20.6 85 85 E 6 9 30.03 1017 10 16.0934 0 0
9:15 pm 21:15 Clear 72 22.3 69 20.6 90 90 E 6 9 30.03 1017 10 16.0934 0 0
9:35 pm 21:35 Clear 71 21.6 69 20.7 95 95 E 6 9 30.03 1017 10 16.0934 0 0
9:55 pm 21:55 Clear 70 21.2 69 20.5 96 96 E 3 6 30.03 1017 10 16.0934 0 0
10:15 pm 22:15 Clear 69 20.8 69 20.5 98 98 E 6 9 30.03 1017 10 16.0934 0 0
10:35 pm 22:35 Clear 69 20.7 69 20.3 98 98 E 5 7 30.03 1017 10 16.0934 0 0
10:55 pm 22:55 Clear 69 20.6 69 20.3 98 98 E 3 6 30.06 1018 10 16.0934 0 0
11:15 pm 23:15 Clear 69 20.5 69 20.3 99 99 E 3 6 30.06 1018 10 16.0934 0 0
11:35 pm 23:35 Clear 68 20.2 68 20.1 99 99 Calm 30.06 1018 10 16.0934 0 0
11:55 pm 23:55 Clear 68 19.8 68 19.8 100 100 Calm 30.06 1018 7 11.26538 0 0

Powered by AerisWeather